Flag for Switzerland Weather past 2 weeks in Pully, Vaud, Switzerland

Now
52 °F

Cool.


Feels Like: 52 °F
Forecast: 47 / 69 °F
Wind: No wind

Location: Aigle

Current Time: Aug 23, 2014 at 5:55:17 AM

Latest Report: Aug 23, 2014 at 4:00 AM


Visibility: N/A

Pressure: 30.02 "Hg

Humidity: 96%

Dew point: 50 °F

Location of PullyLocation

Historic Weather in Pully — Graph

°F

Pully temperature yesterday

Maximum temperature yesterday: 71 °F (at 5:00 PM)
Minimum temperature yesterday: 49 °F (at 4:00 AM)
Average temperature yesterday: 60 °F

Past Weeks' High & Low Weather Summary

 TemperatureHumidityPressure
High79 °F (Aug 10, 7:00 PM)98% (Aug 21, 7:00 AM)30.21 "Hg (Aug 21, 7:00 AM)
Low47 °F (Aug 17, 7:00 AM)38% (Aug 21, 4:00 PM)29.67 "Hg (Aug 13, 9:00 AM)
Average62 °F78%29.98 "Hg
* Reported Aug 8 4:00 AM — Aug 23 4:00 AM, Pully, Weather by CustomWeather, © 2014

Note: Actual official high and low records may vary slightly from our data, if they occured in-between our weather recording intervals... More about our weather records

Advertising

Pully weather history for previous 24 hours

 ConditionsComfort  
Time TempWeatherWind HumidityBarometerVisibility
4:00 AM
Aug 23
52 °FCool.No wind96%30.02 "HgN/A
3:00 AM53 °FCool.2 mph92%30.01 "HgN/A
2:00 AM53 °FCool.1 mph91%30.01 "HgN/A
1:00 AM55 °FCool.5 mph87%30.02 "HgN/A
12:00 AM54 °FCool.3 mph88%30.02 "HgN/A
11:00 PM
Aug 22
56 °FCool.3 mph86%30.03 "HgN/A
10:00 PM60 °FCool.2 mph74%30.01 "HgN/A
9:00 PM65 °FMild.6 mph58%29.97 "HgN/A
8:00 PM66 °FScattered clouds.3 mph58%29.95 "Hg19 mi
7:00 PM70 °FMild.7 mph49%29.92 "HgN/A
6:00 PM69 °FMild.7 mph49%29.93 "HgN/A
5:00 PM71 °FPassing clouds.9 mph49%29.92 "Hg19 mi
4:00 PM70 °FMild.10 mph51%29.93 "HgN/A
3:00 PM70 °FMild.9 mph50%29.95 "HgN/A
2:00 PM69 °FPassing clouds.10 mph51%29.96 "Hg19 mi
1:00 PM67 °FMild.8 mph60%29.98 "HgN/A
12:00 PM65 °FMild.6 mph67%29.99 "HgN/A
11:00 AM64 °FSunny.6 mph65%30.01 "Hg22 mi
10:00 AM62 °FRefreshingly cool.2 mph59%30.02 "HgN/A
9:00 AM58 °FCool.5 mph73%30.03 "HgN/A
8:00 AM54 °FSunny.7 mph78%30.03 "Hg19 mi
7:00 AM52 °FCool.5 mph82%30.04 "HgN/A
6:00 AM51 °FCool.3 mph89%30.04 "HgN/A
5:00 AM51 °FPassing clouds.5 mph92%30.05 "Hg12 mi
Weather by CustomWeather, © 2014

See weather overviewHow to use our weather pages